Time,TemperatureF,DewpointF,PressureIn,WindDirection,WindDirectionDegrees,WindSpeedMPH,WindSpeedGustMPH,Humidity,HourlyPrecipIn,Conditions,Clouds,dailyrainin,SoftwareType,DateUTC
2013-02-25 00:00:00,29.8,26.1,30.13,NNW,341,3.0,3.0,86,0.00,,---,0.00,VWS V14.01,2013-02-25 05:00:00,
2013-02-25 00:05:00,29.7,26.3,30.13,NNW,341,2.0,3.0,87,0.00,,---,0.00,VWS V14.01,2013-02-25 05:05:00,
2013-02-25 00:10:00,29.6,26.2,30.13,NNW,341,0.0,0.0,87,0.00,,---,0.00,VWS V14.01,2013-02-25 05:10:00,
2013-02-25 00:15:00,29.4,26.0,30.13,NNW,341,2.0,4.0,87,0.00,,---,0.00,VWS V14.01,2013-02-25 05:15:00,
2013-02-25 00:20:00,29.4,26.0,30.14,NNW,341,3.0,3.0,87,0.00,,---,0.00,VWS V14.01,2013-02-25 05:20:00,
2013-02-25 00:25:00,29.4,26.0,30.14,NNW,341,1.0,3.0,87,0.00,,---,0.00,VWS V14.01,2013-02-25 05:25:00,
2013-02-25 00:30:00,29.4,26.0,30.14,NNW,341,0.0,1.0,87,0.00,,---,0.00,VWS V14.01,2013-02-25 05:30:00,
2013-02-25 00:35:00,29.4,26.0,30.14,NNW,341,1.0,3.0,87,0.00,,---,0.00,VWS V14.01,2013-02-25 05:35:00,
2013-02-25 00:40:00,29.4,26.0,30.14,NNW,341,2.0,2.0,87,0.00,,---,0.00,VWS V14.01,2013-02-25 05:40:00,
2013-02-25 00:45:00,29.4,26.3,30.13,NNW,341,4.0,5.0,88,0.00,,---,0.00,VWS V14.01,2013-02-25 05:45:00,
2013-02-25 00:50:00,29.3,25.9,30.13,NNE,31,4.0,5.0,87,0.00,,---,0.00,VWS V14.01,2013-02-25 05:50:00,
2013-02-25 00:55:00,29.3,25.9,30.13,NNE,31,4.0,5.0,87,0.00,,---,0.00,VWS V14.01,2013-02-25 05:55:00,
2013-02-25 01:00:00,29.3,26.2,30.13,NNE,31,2.0,3.0,88,0.00,,---,0.00,VWS V14.01,2013-02-25 06:00:00,
2013-02-25 01:05:00,29.3,26.2,30.13,NNE,31,1.0,3.0,88,0.00,,---,0.00,VWS V14.01,2013-02-25 06:05:00,
2013-02-25 01:10:00,29.1,26.0,30.13,NNE,31,1.0,3.0,88,0.00,,---,0.00,VWS V14.01,2013-02-25 06:10:00,
2013-02-25 01:11:00,29.1,26.0,30.13,NNE,31,1.0,2.0,88,0.00,,---,0.00,VWS V14.01,2013-02-25 06:11:00,
2013-02-25 01:16:00,29.1,26.3,30.14,NNE,31,1.0,3.0,89,0.00,,---,0.00,VWS V14.01,2013-02-25 06:16:00,
2013-02-25 01:20:00,29.3,26.2,30.14,NNE,31,0.0,3.0,88,0.00,,---,0.00,VWS V14.01,2013-02-25 06:20:00,
2013-02-25 01:21:00,29.3,26.2,30.13,NNE,31,0.0,1.0,88,0.00,,---,0.00,VWS V14.01,2013-02-25 06:21:00,
2013-02-25 01:26:00,29.3,26.2,30.14,NNE,31,0.0,1.0,88,0.00,,---,0.00,VWS V14.01,2013-02-25 06:26:00,
2013-02-25 01:30:00,29.1,26.3,30.14,NNE,31,1.0,1.0,89,0.00,,---,0.00,VWS V14.01,2013-02-25 06:30:00,
2013-02-25 01:31:00,29.1,26.3,30.14,NNE,31,1.0,3.0,89,0.00,,---,0.00,VWS V14.01,2013-02-25 06:31:00,
2013-02-25 01:36:00,29.1,26.0,30.14,NNE,31,1.0,3.0,88,0.00,,---,0.00,VWS V14.01,2013-02-25 06:36:00,
2013-02-25 01:40:00,29.1,26.3,30.14,NNE,31,2.0,3.0,89,0.00,,---,0.00,VWS V14.01,2013-02-25 06:40:00,
2013-02-25 01:41:00,29.3,26.5,30.14,NNE,31,0.0,2.0,89,0.00,,---,0.00,VWS V14.01,2013-02-25 06:41:00,
2013-02-25 01:46:00,29.1,26.3,30.15,NNE,31,0.0,2.0,89,0.00,,---,0.00,VWS V14.01,2013-02-25 06:46:00,
2013-02-25 01:50:00,29.1,26.3,30.14,NNE,31,0.0,2.0,89,0.00,,---,0.00,VWS V14.01,2013-02-25 06:50:00,
2013-02-25 01:51:00,29.0,26.2,30.15,NNE,31,0.0,0.0,89,0.00,,---,0.00,VWS V14.01,2013-02-25 06:51:00,
2013-02-25 01:56:00,29.0,26.2,30.15,NNE,31,1.0,2.0,89,0.00,,---,0.00,VWS V14.01,2013-02-25 06:56:00,
2013-02-25 02:00:00,28.8,26.0,30.15,NNE,31,0.0,2.0,89,0.00,,---,0.00,VWS V14.01,2013-02-25 07:00:00,
2013-02-25 02:01:00,28.8,26.2,30.15,NNE,31,1.0,1.0,90,0.00,,---,0.00,VWS V14.01,2013-02-25 07:01:00,
2013-02-25 02:06:00,28.8,26.0,30.16,NNE,31,2.0,3.0,89,0.00,,---,0.00,VWS V14.01,2013-02-25 07:06:00,
2013-02-25 02:10:00,28.8,26.2,30.15,NNE,31,0.0,3.0,90,0.00,,---,0.00,VWS V14.01,2013-02-25 07:10:00,
2013-02-25 02:11:00,28.7,25.9,30.15,NNE,31,1.0,2.0,89,0.00,,---,0.00,VWS V14.01,2013-02-25 07:11:00,
2013-02-25 02:16:00,28.5,26.0,30.15,NNE,31,2.0,3.0,90,0.00,,---,0.00,VWS V14.01,2013-02-25 07:16:00,
2013-02-25 02:20:00,28.5,26.0,30.15,NNE,31,1.0,3.0,90,0.00,,---,0.00,VWS V14.01,2013-02-25 07:20:00,
2013-02-25 02:21:00,28.7,25.9,30.16,NNE,31,0.0,2.0,89,0.00,,---,0.00,VWS V14.01,2013-02-25 07:21:00,
2013-02-25 02:26:00,28.7,26.1,30.16,NNE,31,2.0,3.0,90,0.00,,---,0.00,VWS V14.01,2013-02-25 07:26:00,
2013-02-25 02:30:00,28.7,26.1,30.16,NNE,31,0.0,3.0,90,0.00,,---,0.00,VWS V14.01,2013-02-25 07:30:00,
2013-02-25 02:31:00,28.6,26.0,30.16,NNE,31,0.0,0.0,90,0.00,,---,0.00,VWS V14.01,2013-02-25 07:31:00,
2013-02-25 02:36:00,28.8,26.2,30.16,NNE,31,0.0,2.0,90,0.00,,---,0.00,VWS V14.01,2013-02-25 07:36:00,
2013-02-25 02:40:00,28.8,26.2,30.16,NNE,31,0.0,2.0,90,0.00,,---,0.00,VWS V14.01,2013-02-25 07:40:00,
2013-02-25 02:41:00,28.8,26.0,30.16,NNE,31,0.0,0.0,89,0.00,,---,0.00,VWS V14.01,2013-02-25 07:41:00,
2013-02-25 02:46:00,28.8,26.2,30.16,NNE,31,0.0,0.0,90,0.00,,---,0.00,VWS V14.01,2013-02-25 07:46:00,
2013-02-25 02:50:00,28.7,25.9,30.16,NNE,31,0.0,0.0,89,0.00,,---,0.00,VWS V14.01,2013-02-25 07:50:00,
2013-02-25 02:51:00,28.7,26.1,30.16,NNE,31,0.0,0.0,90,0.00,,---,0.00,VWS V14.01,2013-02-25 07:51:00,
2013-02-25 02:56:00,28.7,26.1,30.16,NNE,31,0.0,0.0,90,0.00,,---,0.00,VWS V14.01,2013-02-25 07:56:00,
2013-02-25 03:00:00,28.5,26.0,30.16,NNE,31,0.0,0.0,90,0.00,,---,0.00,VWS V14.01,2013-02-25 08:00:00,
2013-02-25 03:01:00,28.5,26.0,30.16,NNE,31,2.0,2.0,90,0.00,,---,0.00,VWS V14.01,2013-02-25 08:01:00,
2013-02-25 03:06:00,28.7,26.1,30.16,NNE,31,0.0,3.0,90,0.00,,---,0.00,VWS V14.01,2013-02-25 08:06:00,
2013-02-25 03:10:00,28.7,26.1,30.16,NNE,31,0.0,3.0,90,0.00,,---,0.00,VWS V14.01,2013-02-25 08:10:00,
2013-02-25 03:11:00,28.6,26.0,30.16,NNE,31,0.0,2.0,90,0.00,,---,0.00,VWS V14.01,2013-02-25 08:11:00,
2013-02-25 03:16:00,28.7,26.1,30.16,NNE,31,0.0,2.0,90,0.00,,---,0.00,VWS V14.01,2013-02-25 08:16:00,
2013-02-25 03:20:00,28.7,26.1,30.15,NNE,31,2.0,3.0,90,0.00,,---,0.00,VWS V14.01,2013-02-25 08:20:00,
2013-02-25 03:21:00,28.7,26.1,30.15,NNE,31,1.0,3.0,90,0.00,,---,0.00,VWS V14.01,2013-02-25 08:21:00,
2013-02-25 03:26:00,28.7,25.9,30.15,NNE,31,0.0,3.0,89,0.00,,---,0.00,VWS V14.01,2013-02-25 08:26:00,
2013-02-25 03:30:00,28.7,26.1,30.15,NNE,31,0.0,3.0,90,0.00,,---,0.00,VWS V14.01,2013-02-25 08:30:00,
2013-02-25 03:31:00,28.7,26.1,30.15,NNE,31,0.0,1.0,90,0.00,,---,0.00,VWS V14.01,2013-02-25 08:31:00,
2013-02-25 03:36:00,28.5,26.0,30.16,NNE,31,0.0,3.0,90,0.00,,---,0.00,VWS V14.01,2013-02-25 08:36:00,
2013-02-25 03:40:00,28.5,26.0,30.16,NNE,31,0.0,3.0,90,0.00,,---,0.00,VWS V14.01,2013-02-25 08:40:00,
2013-02-25 03:41:00,28.4,25.9,30.15,NNE,31,0.0,0.0,90,0.00,,---,0.00,VWS V14.01,2013-02-25 08:41:00,
2013-02-25 03:46:00,28.4,25.9,30.15,NNE,31,0.0,0.0,90,0.00,,---,0.00,VWS V14.01,2013-02-25 08:46:00,
2013-02-25 03:50:00,28.2,25.6,30.15,NNE,31,0.0,0.0,90,0.00,,---,0.00,VWS V14.01,2013-02-25 08:50:00,
2013-02-25 03:51:00,28.2,25.6,30.15,NNE,31,0.0,0.0,90,0.00,,---,0.00,VWS V14.01,2013-02-25 08:51:00,
2013-02-25 03:56:00,28.2,25.6,30.15,NNE,31,0.0,0.0,90,0.00,,---,0.00,VWS V14.01,2013-02-25 08:56:00,
2013-02-25 04:00:00,28.2,25.9,30.15,NNE,31,0.0,0.0,91,0.00,,---,0.00,VWS V14.01,2013-02-25 09:00:00,
2013-02-25 04:01:00,28.2,25.6,30.15,NNE,31,0.0,0.0,90,0.00,,---,0.00,VWS V14.01,2013-02-25 09:01:00,
2013-02-25 04:06:00,28.1,25.8,30.15,NNE,31,0.0,2.0,91,0.00,,---,0.00,VWS V14.01,2013-02-25 09:06:00,
2013-02-25 04:10:00,28.2,25.9,30.15,NNE,31,0.0,2.0,91,0.00,,---,0.00,VWS V14.01,2013-02-25 09:10:00,
2013-02-25 04:11:00,28.2,25.9,30.15,SW,225,2.0,2.0,91,0.00,,---,0.00,VWS V14.01,2013-02-25 09:11:00,
2013-02-25 04:17:00,28.4,26.1,30.15,SW,225,0.0,3.0,91,0.00,,---,0.00,VWS V14.01,2013-02-25 09:17:00,
2013-02-25 04:20:00,28.4,26.1,30.16,NNE,25,0.0,3.0,91,0.00,,---,0.00,VWS V14.01,2013-02-25 09:20:00,
2013-02-25 04:22:00,28.4,26.1,30.15,NNE,25,2.0,2.0,91,0.00,,---,0.00,VWS V14.01,2013-02-25 09:22:00,
2013-02-25 04:27:00,28.4,26.1,30.15,NNE,25,0.0,3.0,91,0.00,,---,0.00,VWS V14.01,2013-02-25 09:27:00,
2013-02-25 04:30:00,28.2,25.9,30.15,NNE,25,0.0,3.0,91,0.00,,---,0.00,VWS V14.01,2013-02-25 09:30:00,
2013-02-25 04:32:00,28.2,25.9,30.15,NNE,25,0.0,0.0,91,0.00,,---,0.00,VWS V14.01,2013-02-25 09:32:00,
2013-02-25 04:37:00,28.2,25.9,30.15,NNE,25,0.0,2.0,91,0.00,,---,0.00,VWS V14.01,2013-02-25 09:37:00,
2013-02-25 04:40:00,28.2,25.9,30.15,NNE,25,0.0,2.0,91,0.00,,---,0.00,VWS V14.01,2013-02-25 09:40:00,
2013-02-25 04:42:00,28.1,25.8,30.15,NNE,25,0.0,0.0,91,0.00,,---,0.00,VWS V14.01,2013-02-25 09:42:00,
2013-02-25 04:47:00,28.1,25.8,30.15,NNE,25,0.0,2.0,91,0.00,,---,0.00,VWS V14.01,2013-02-25 09:47:00,
2013-02-25 04:50:00,28.1,25.8,30.15,NNE,25,0.0,2.0,91,0.00,,---,0.00,VWS V14.01,2013-02-25 09:50:00,
2013-02-25 04:52:00,28.1,26.1,30.15,NNE,25,0.0,0.0,92,0.00,,---,0.00,VWS V14.01,2013-02-25 09:52:00,
2013-02-25 04:57:00,28.1,26.1,30.15,NNE,25,0.0,0.0,92,0.00,,---,0.00,VWS V14.01,2013-02-25 09:57:00,
2013-02-25 05:00:00,28.1,25.8,30.15,NNE,25,0.0,0.0,91,0.00,,---,0.00,VWS V14.01,2013-02-25 10:00:00,
2013-02-25 05:02:00,28.1,26.1,30.15,NNE,25,0.0,0.0,92,0.00,,---,0.00,VWS V14.01,2013-02-25 10:02:00,
2013-02-25 05:07:00,28.1,26.1,30.15,NNE,25,0.0,0.0,92,0.00,,---,0.00,VWS V14.01,2013-02-25 10:07:00,
2013-02-25 05:10:00,28.1,26.1,30.15,NNE,25,0.0,0.0,92,0.00,,---,0.00,VWS V14.01,2013-02-25 10:10:00,
2013-02-25 05:12:00,28.1,25.8,30.15,NNE,25,0.0,0.0,91,0.00,,---,0.00,VWS V14.01,2013-02-25 10:12:00,
2013-02-25 05:17:00,28.1,26.1,30.16,NNE,25,0.0,0.0,92,0.00,,---,0.00,VWS V14.01,2013-02-25 10:17:00,
2013-02-25 05:20:00,28.1,25.8,30.16,NNE,25,0.0,0.0,91,0.00,,---,0.00,VWS V14.01,2013-02-25 10:20:00,
2013-02-25 05:22:00,28.1,25.8,30.16,NNE,25,0.0,0.0,91,0.00,,---,0.00,VWS V14.01,2013-02-25 10:22:00,
2013-02-25 05:27:00,28.2,25.9,30.16,NNE,25,0.0,0.0,91,0.00,,---,0.00,VWS V14.01,2013-02-25 10:27:00,
2013-02-25 05:30:00,28.2,25.9,30.16,NNE,25,0.0,0.0,91,0.00,,---,0.00,VWS V14.01,2013-02-25 10:30:00,
2013-02-25 05:32:00,28.2,25.9,30.16,NNE,25,0.0,0.0,91,0.00,,---,0.00,VWS V14.01,2013-02-25 10:32:00,
2013-02-25 05:37:00,28.2,25.9,30.16,NNE,25,0.0,0.0,91,0.00,,---,0.00,VWS V14.01,2013-02-25 10:37:00,
2013-02-25 05:40:00,28.2,25.9,30.16,NNE,25,0.0,0.0,91,0.00,,---,0.00,VWS V14.01,2013-02-25 10:40:00,
2013-02-25 05:42:00,28.2,25.9,30.16,NNE,25,1.0,2.0,91,0.00,,---,0.00,VWS V14.01,2013-02-25 10:42:00,
2013-02-25 05:47:00,28.2,26.2,30.16,NNE,25,0.0,2.0,92,0.00,,---,0.00,VWS V14.01,2013-02-25 10:47:00,
2013-02-25 05:50:00,28.2,26.2,30.16,NNE,25,1.0,2.0,92,0.00,,---,0.00,VWS V14.01,2013-02-25 10:50:00,
2013-02-25 05:52:00,28.2,26.2,30.16,NNE,25,0.0,2.0,92,0.00,,---,0.00,VWS V14.01,2013-02-25 10:52:00,
2013-02-25 05:57:00,28.2,26.2,30.16,NNE,25,2.0,3.0,92,0.00,,---,0.00,VWS V14.01,2013-02-25 10:57:00,
2013-02-25 06:00:00,28.2,26.2,30.16,NNE,25,0.0,3.0,92,0.00,,---,0.00,VWS V14.01,2013-02-25 11:00:00,
2013-02-25 06:02:00,28.2,26.2,30.16,NNE,25,0.0,3.0,92,0.00,,---,0.00,VWS V14.01,2013-02-25 11:02:00,
2013-02-25 06:07:00,28.2,26.2,30.16,NNE,25,1.0,3.0,92,0.00,,---,0.00,VWS V14.01,2013-02-25 11:07:00,
2013-02-25 06:12:00,28.1,26.1,30.16,NNE,25,0.0,3.0,92,0.00,,---,0.00,VWS V14.01,2013-02-25 11:12:00,
2013-02-25 06:17:00,28.1,26.1,30.16,NNE,25,0.0,3.0,92,0.00,,---,0.00,VWS V14.01,2013-02-25 11:17:00,
2013-02-25 06:20:00,27.9,25.9,30.16,NNE,25,1.0,3.0,92,0.00,,---,0.00,VWS V14.01,2013-02-25 11:20:00,
2013-02-25 06:22:00,28.1,26.1,30.16,NNE,25,0.0,3.0,92,0.00,,---,0.00,VWS V14.01,2013-02-25 11:22:00,
2013-02-25 06:27:00,28.1,26.3,30.16,NNE,25,0.0,3.0,93,0.00,,---,0.00,VWS V14.01,2013-02-25 11:27:00,
2013-02-25 06:30:00,28.1,26.1,30.16,NNE,25,0.0,3.0,92,0.00,,---,0.00,VWS V14.01,2013-02-25 11:30:00,
2013-02-25 06:32:00,28.1,26.3,30.16,NNE,25,0.0,0.0,93,0.00,,---,0.00,VWS V14.01,2013-02-25 11:32:00,
2013-02-25 06:37:00,27.9,26.1,30.17,NNE,25,0.0,2.0,93,0.00,,---,0.00,VWS V14.01,2013-02-25 11:37:00,
2013-02-25 06:40:00,28.1,26.1,30.17,NNE,25,0.0,3.0,92,0.00,,---,0.00,VWS V14.01,2013-02-25 11:40:00,
2013-02-25 06:42:00,28.1,26.3,30.17,NNE,25,0.0,2.0,93,0.00,,---,0.00,VWS V14.01,2013-02-25 11:42:00,
2013-02-25 06:47:00,28.2,26.7,30.17,NNE,25,2.0,4.0,94,0.00,,---,0.00,VWS V14.01,2013-02-25 11:47:00,
2013-02-25 06:50:00,28.4,26.6,30.17,NNE,25,1.0,4.0,93,0.00,,---,0.00,VWS V14.01,2013-02-25 11:50:00,
2013-02-25 06:52:00,28.4,26.9,30.16,SE,134,2.0,3.0,94,0.00,,---,0.00,VWS V14.01,2013-02-25 11:52:00,
2013-02-25 06:57:00,28.5,26.7,30.16,SE,134,2.0,3.0,93,0.00,,---,0.00,VWS V14.01,2013-02-25 11:57:00,
2013-02-25 07:00:00,28.5,26.7,30.16,SE,134,2.0,4.0,93,0.00,,---,0.00,VWS V14.01,2013-02-25 12:00:00,
2013-02-25 07:02:00,28.5,26.7,30.16,SE,134,2.0,3.0,93,0.00,,---,0.00,VWS V14.01,2013-02-25 12:02:00,
2013-02-25 07:08:00,28.5,26.7,30.16,SE,134,0.0,4.0,93,0.00,,---,0.00,VWS V14.01,2013-02-25 12:08:00,
2013-02-25 07:10:00,28.5,26.7,30.16,SE,134,0.0,4.0,93,0.00,,---,0.00,VWS V14.01,2013-02-25 12:10:00,
2013-02-25 07:13:00,28.5,26.7,30.16,SE,134,0.0,1.0,93,0.00,,---,0.00,VWS V14.01,2013-02-25 12:13:00,
2013-02-25 07:18:00,28.5,26.5,30.16,SE,134,0.0,1.0,92,0.00,,---,0.00,VWS V14.01,2013-02-25 12:18:00,
2013-02-25 07:20:00,28.5,26.7,30.16,SE,134,0.0,1.0,93,0.00,,---,0.00,VWS V14.01,2013-02-25 12:20:00,
2013-02-25 07:23:00,28.5,26.5,30.16,SE,134,0.0,2.0,92,0.00,,---,0.00,VWS V14.01,2013-02-25 12:23:00,
2013-02-25 07:28:00,28.7,26.9,30.16,SE,134,1.0,4.0,93,0.00,,---,0.00,VWS V14.01,2013-02-25 12:28:00,
2013-02-25 07:30:00,28.7,26.9,30.17,SE,134,1.0,4.0,93,0.00,,---,0.00,VWS V14.01,2013-02-25 12:30:00,
2013-02-25 07:33:00,28.7,26.9,30.17,SE,134,3.0,4.0,93,0.00,,---,0.00,VWS V14.01,2013-02-25 12:33:00,
2013-02-25 07:38:00,28.8,27.0,30.17,SE,134,1.0,4.0,93,0.00,,---,0.00,VWS V14.01,2013-02-25 12:38:00,
2013-02-25 07:40:00,29.0,27.2,30.17,SE,139,1.0,5.0,93,0.00,,---,0.00,VWS V14.01,2013-02-25 12:40:00,
2013-02-25 07:43:00,29.0,27.2,30.17,SE,139,3.0,5.0,93,0.00,,---,0.00,VWS V14.01,2013-02-25 12:43:00,
2013-02-25 07:48:00,29.1,27.1,30.17,SE,139,2.0,5.0,92,0.00,,---,0.00,VWS V14.01,2013-02-25 12:48:00,
2013-02-25 07:50:00,29.1,27.1,30.17,SE,139,2.0,5.0,92,0.00,,---,0.00,VWS V14.01,2013-02-25 12:50:00,
2013-02-25 07:53:00,29.1,27.1,30.17,South,182,3.0,6.0,92,0.00,,---,0.00,VWS V14.01,2013-02-25 12:53:00,
2013-02-25 07:58:00,29.1,27.1,30.17,South,182,3.0,6.0,92,0.00,,---,0.00,VWS V14.01,2013-02-25 12:58:00,
2013-02-25 08:00:00,29.3,27.3,30.17,South,182,1.0,6.0,92,0.00,,---,0.00,VWS V14.01,2013-02-25 13:00:00,
2013-02-25 08:03:00,29.3,27.3,30.17,South,182,1.0,5.0,92,0.00,,---,0.00,VWS V14.01,2013-02-25 13:03:00,
2013-02-25 08:08:00,29.2,26.9,30.17,South,182,2.0,5.0,91,0.00,,---,0.00,VWS V14.01,2013-02-25 13:08:00,
2013-02-25 08:10:00,29.3,27.0,30.17,South,182,3.0,5.0,91,0.00,,---,0.00,VWS V14.01,2013-02-25 13:10:00,
2013-02-25 08:13:00,29.3,27.0,30.17,South,182,1.0,5.0,91,0.00,,---,0.00,VWS V14.01,2013-02-25 13:13:00,
2013-02-25 08:18:00,29.4,27.1,30.17,South,179,4.0,5.0,91,0.00,,---,0.00,VWS V14.01,2013-02-25 13:18:00,
2013-02-25 08:20:00,29.4,27.1,30.17,South,183,2.0,5.0,91,0.00,,---,0.00,VWS V14.01,2013-02-25 13:20:00,
2013-02-25 08:23:00,29.4,26.8,30.17,South,182,3.0,5.0,90,0.00,,---,0.00,VWS V14.01,2013-02-25 13:23:00,
2013-02-25 08:28:00,29.4,26.8,30.18,South,183,4.0,5.0,90,0.00,,---,0.00,VWS V14.01,2013-02-25 13:28:00,
2013-02-25 08:30:00,29.4,26.8,30.18,South,183,4.0,5.0,90,0.00,,---,0.00,VWS V14.01,2013-02-25 13:30:00,
2013-02-25 08:33:00,29.6,26.8,30.18,South,182,4.0,5.0,89,0.00,,---,0.00,VWS V14.01,2013-02-25 13:33:00,
2013-02-25 08:38:00,29.6,26.8,30.18,South,182,3.0,5.0,89,0.00,,---,0.00,VWS V14.01,2013-02-25 13:38:00,
2013-02-25 08:40:00,29.5,26.7,30.19,South,180,3.0,5.0,89,0.00,,---,0.00,VWS V14.01,2013-02-25 13:40:00,
2013-02-25 08:43:00,29.5,26.7,30.19,South,179,3.0,5.0,89,0.00,,---,0.00,VWS V14.01,2013-02-25 13:43:00,
2013-02-25 08:48:00,29.5,26.7,30.19,South,176,3.0,6.0,89,0.00,,---,0.00,VWS V14.01,2013-02-25 13:48:00,
2013-02-25 08:50:00,29.5,26.7,30.18,South,173,3.0,6.0,89,0.00,,---,0.00,VWS V14.01,2013-02-25 13:50:00,
2013-02-25 08:53:00,29.6,26.8,30.19,South,180,2.0,5.0,89,0.00,,---,0.00,VWS V14.01,2013-02-25 13:53:00,
2013-02-25 08:58:00,29.6,26.8,30.19,South,185,0.0,5.0,89,0.00,,---,0.00,VWS V14.01,2013-02-25 13:58:00,
2013-02-25 09:00:00,29.5,26.7,30.18,South,177,2.0,5.0,89,0.00,,---,0.00,VWS V14.01,2013-02-25 14:00:00,
2013-02-25 09:03:00,29.6,26.5,30.18,South,188,1.0,5.0,88,0.00,,---,0.00,VWS V14.01,2013-02-25 14:03:00,
2013-02-25 09:08:00,29.6,26.8,30.19,South,189,0.0,5.0,89,0.00,,---,0.00,VWS V14.01,2013-02-25 14:08:00,
2013-02-25 09:10:00,29.6,26.8,30.19,South,189,5.0,5.0,89,0.00,,---,0.00,VWS V14.01,2013-02-25 14:10:00,
2013-02-25 09:14:00,29.6,26.5,30.19,South,172,3.0,6.0,88,0.00,,---,0.00,VWS V14.01,2013-02-25 14:14:00,
2013-02-25 09:19:00,29.7,26.6,30.18,South,177,4.0,6.0,88,0.00,,---,0.00,VWS V14.01,2013-02-25 14:19:00,
2013-02-25 09:20:00,29.7,26.6,30.19,South,177,4.0,6.0,88,0.00,,---,0.00,VWS V14.01,2013-02-25 14:20:00,
2013-02-25 09:24:00,29.9,26.5,30.18,South,186,3.0,5.0,87,0.00,,---,0.00,VWS V14.01,2013-02-25 14:24:00,
2013-02-25 09:29:00,30.0,26.6,30.19,South,170,3.0,6.0,87,0.00,,---,0.00,VWS V14.01,2013-02-25 14:29:00,
2013-02-25 09:30:00,30.0,26.6,30.19,South,171,3.0,6.0,87,0.00,,---,0.00,VWS V14.01,2013-02-25 14:30:00,
2013-02-25 09:34:00,30.0,26.3,30.19,SSE,150,3.0,5.0,86,0.00,,---,0.00,VWS V14.01,2013-02-25 14:34:00,
2013-02-25 09:39:00,30.2,26.5,30.19,South,171,5.0,6.0,86,0.00,,---,0.00,VWS V14.01,2013-02-25 14:39:00,
2013-02-25 09:40:00,30.2,26.5,30.19,SSW,192,3.0,6.0,86,0.00,,---,0.00,VWS V14.01,2013-02-25 14:40:00,
2013-02-25 09:44:00,30.2,26.2,30.19,South,183,0.0,5.0,85,0.00,,---,0.00,VWS V14.01,2013-02-25 14:44:00,
2013-02-25 09:49:00,30.3,26.3,30.18,South,180,2.0,5.0,85,0.00,,---,0.00,VWS V14.01,2013-02-25 14:49:00,
2013-02-25 09:50:00,30.3,26.3,30.19,South,180,1.0,5.0,85,0.00,,---,0.00,VWS V14.01,2013-02-25 14:50:00,
2013-02-25 09:54:00,30.5,26.5,30.19,South,180,3.0,4.0,85,0.00,,---,0.00,VWS V14.01,2013-02-25 14:54:00,
2013-02-25 09:59:00,30.5,26.0,30.19,South,180,0.0,5.0,83,0.00,,---,0.00,VWS V14.01,2013-02-25 14:59:00,
2013-02-25 10:00:00,30.5,26.0,30.19,South,180,1.0,5.0,83,0.00,,---,0.00,VWS V14.01,2013-02-25 15:00:00,
2013-02-25 10:04:00,30.6,26.1,30.19,South,175,0.0,5.0,83,0.00,,---,0.00,VWS V14.01,2013-02-25 15:04:00,
2013-02-25 10:09:00,30.8,26.3,30.19,South,175,3.0,6.0,83,0.00,,---,0.00,VWS V14.01,2013-02-25 15:09:00,
2013-02-25 10:10:00,30.8,26.3,30.18,South,175,1.0,6.0,83,0.00,,---,0.00,VWS V14.01,2013-02-25 15:10:00,
2013-02-25 10:14:00,30.9,26.4,30.19,South,175,2.0,3.0,83,0.00,,---,0.00,VWS V14.01,2013-02-25 15:14:00,
2013-02-25 10:19:00,31.2,26.4,30.18,South,171,3.0,5.0,82,0.00,,---,0.00,VWS V14.01,2013-02-25 15:19:00,
2013-02-25 10:20:00,31.2,26.4,30.18,South,171,1.0,5.0,82,0.00,,---,0.00,VWS V14.01,2013-02-25 15:20:00,
2013-02-25 10:24:00,31.3,26.5,30.18,SE,142,2.0,4.0,82,0.00,,---,0.00,VWS V14.01,2013-02-25 15:24:00,
2013-02-25 10:29:00,31.6,26.5,30.18,SE,142,1.0,4.0,81,0.00,,---,0.00,VWS V14.01,2013-02-25 15:29:00,
2013-02-25 10:30:00,31.6,26.5,30.18,SE,142,2.0,4.0,81,0.00,,---,0.00,VWS V14.01,2013-02-25 15:30:00,
2013-02-25 10:34:00,31.9,26.4,30.18,SSE,156,4.0,5.0,80,0.00,,---,0.00,VWS V14.01,2013-02-25 15:34:00,
2013-02-25 10:39:00,31.9,25.8,30.18,SSE,166,0.0,5.0,78,0.00,,---,0.00,VWS V14.01,2013-02-25 15:39:00,
2013-02-25 10:44:00,32.2,26.4,30.18,South,169,2.0,4.0,79,0.00,,---,0.00,VWS V14.01,2013-02-25 15:44:00,
2013-02-25 10:49:00,32.6,26.5,30.18,South,169,0.0,4.0,78,0.00,,---,0.00,VWS V14.01,2013-02-25 15:49:00,
2013-02-25 10:50:00,32.6,26.5,30.18,South,169,0.0,4.0,78,0.00,,---,0.00,VWS V14.01,2013-02-25 15:50:00,
2013-02-25 10:54:00,33.2,27.1,30.18,SSE,168,0.0,5.0,78,0.00,,---,0.00,VWS V14.01,2013-02-25 15:54:00,
2013-02-25 10:59:00,33.8,27.0,30.18,South,169,2.0,5.0,76,0.00,,---,0.00,VWS V14.01,2013-02-25 15:59:00,
2013-02-25 11:00:00,33.9,27.1,30.18,South,169,1.0,5.0,76,0.00,,---,0.00,VWS V14.01,2013-02-25 16:00:00,
2013-02-25 11:04:00,34.0,26.6,30.18,SSW,192,0.0,5.0,74,0.00,,---,0.00,VWS V14.01,2013-02-25 16:04:00,
2013-02-25 11:09:00,34.3,26.2,30.18,South,178,4.0,7.0,72,0.00,,---,0.00,VWS V14.01,2013-02-25 16:09:00,
2013-02-25 11:10:00,34.3,26.2,30.17,South,178,4.0,7.0,72,0.00,,---,0.00,VWS V14.01,2013-02-25 16:10:00,
2013-02-25 11:15:00,34.5,26.4,30.18,South,169,4.0,5.0,72,0.00,,---,0.00,VWS V14.01,2013-02-25 16:15:00,
2013-02-25 11:20:00,34.9,26.8,30.18,SSE,152,3.0,6.0,72,0.01,,---,0.01,VWS V14.01,2013-02-25 16:20:00,
2013-02-25 11:25:00,35.0,25.9,30.18,SSE,156,4.0,5.0,69,0.01,,---,0.01,VWS V14.01,2013-02-25 16:25:00,
2013-02-25 11:30:00,35.2,26.1,30.18,SE,144,1.0,5.0,69,0.01,,---,0.01,VWS V14.01,2013-02-25 16:30:00,
2013-02-25 11:35:00,35.2,25.7,30.18,South,174,3.0,6.0,68,0.01,,---,0.01,VWS V14.01,2013-02-25 16:35:00,
2013-02-25 11:40:00,35.3,25.5,30.18,South,174,3.0,6.0,67,0.01,,---,0.01,VWS V14.01,2013-02-25 16:40:00,
2013-02-25 11:45:00,35.2,24.6,30.18,South,175,3.0,6.0,65,0.02,,---,0.02,VWS V14.01,2013-02-25 16:45:00,
2013-02-25 11:50:00,35.4,25.2,30.17,South,174,6.0,8.0,66,0.02,,---,0.02,VWS V14.01,2013-02-25 16:50:00,
2013-02-25 11:55:00,35.9,25.3,30.18,West,263,4.0,9.0,65,0.02,,---,0.02,VWS V14.01,2013-02-25 16:55:00,
2013-02-25 12:00:00,36.0,25.0,30.18,South,189,5.0,9.0,64,0.02,,---,0.02,VWS V14.01,2013-02-25 17:00:00,
2013-02-25 12:05:00,35.9,25.3,30.18,SW,230,3.0,5.0,65,0.02,,---,0.02,VWS V14.01,2013-02-25 17:05:00,
2013-02-25 12:10:00,35.6,24.3,30.18,SW,219,4.0,7.0,63,0.03,,---,0.03,VWS V14.01,2013-02-25 17:10:00,
2013-02-25 12:15:00,35.3,24.4,30.18,SSW,208,6.0,8.0,64,0.03,,---,0.03,VWS V14.01,2013-02-25 17:15:00,
2013-02-25 12:20:00,35.2,24.6,30.18,WNW,291,1.0,9.0,65,0.03,,---,0.03,VWS V14.01,2013-02-25 17:20:00,
2013-02-25 12:25:00,35.2,25.0,30.18,SW,220,5.0,6.0,66,0.02,,---,0.03,VWS V14.01,2013-02-25 17:25:00,
2013-02-25 12:30:00,35.2,25.4,30.18,WSW,258,8.0,9.0,67,0.02,,---,0.03,VWS V14.01,2013-02-25 17:30:00,
2013-02-25 12:35:00,35.0,25.2,30.18,WNW,285,6.0,8.0,67,0.02,,---,0.03,VWS V14.01,2013-02-25 17:35:00,
2013-02-25 12:40:00,34.9,24.3,30.18,WNW,292,4.0,8.0,65,0.02,,---,0.03,VWS V14.01,2013-02-25 17:40:00,
2013-02-25 12:45:00,34.7,24.1,30.17,WNW,302,3.0,7.0,65,0.03,,---,0.04,VWS V14.01,2013-02-25 17:45:00,
2013-02-25 12:50:00,34.7,24.1,30.17,SW,228,2.0,7.0,65,0.03,,---,0.04,VWS V14.01,2013-02-25 17:50:00,
2013-02-25 12:55:00,34.9,24.3,30.18,SW,229,2.0,6.0,65,0.02,,---,0.04,VWS V14.01,2013-02-25 17:55:00,
2013-02-25 13:00:00,34.9,24.3,30.17,SSW,208,5.0,7.0,65,0.02,,---,0.04,VWS V14.01,2013-02-25 18:00:00,
2013-02-25 13:05:00,35.2,24.6,30.17,SW,234,2.0,5.0,65,0.02,,---,0.04,VWS V14.01,2013-02-25 18:05:00,
2013-02-25 13:10:00,35.2,24.3,30.16,South,189,3.0,7.0,64,0.02,,---,0.04,VWS V14.01,2013-02-25 18:10:00,
2013-02-25 13:15:00,35.3,24.4,30.16,WSW,251,2.0,4.0,64,0.01,,---,0.04,VWS V14.01,2013-02-25 18:15:00,
2013-02-25 13:20:00,35.6,24.3,30.16,SSW,213,3.0,7.0,63,0.01,,---,0.04,VWS V14.01,2013-02-25 18:20:00,
2013-02-25 13:25:00,35.5,23.8,30.16,SW,219,1.0,7.0,62,0.01,,---,0.04,VWS V14.01,2013-02-25 18:25:00,
2013-02-25 13:30:00,35.5,23.8,30.16,SW,224,2.0,3.0,62,0.01,,---,0.04,VWS V14.01,2013-02-25 18:30:00,
2013-02-25 13:35:00,35.5,24.2,30.16,South,179,5.0,10.0,63,0.02,,---,0.05,VWS V14.01,2013-02-25 18:35:00,
2013-02-25 13:40:00,35.3,24.4,30.16,WSW,252,1.0,3.0,64,0.02,,---,0.05,VWS V14.01,2013-02-25 18:40:00,
2013-02-25 13:45:00,35.6,25.0,30.16,WSW,239,2.0,6.0,65,0.02,,---,0.05,VWS V14.01,2013-02-25 18:45:00,
2013-02-25 13:50:00,35.6,24.6,30.16,WSW,258,3.0,4.0,64,0.01,,---,0.05,VWS V14.01,2013-02-25 18:50:00,
2013-02-25 13:55:00,35.6,24.6,30.17,SW,219,2.0,9.0,64,0.01,,---,0.05,VWS V14.01,2013-02-25 18:55:00,
2013-02-25 14:00:00,35.9,24.9,30.17,SW,235,2.0,3.0,64,0.01,,---,0.05,VWS V14.01,2013-02-25 19:00:00,
2013-02-25 14:05:00,36.6,25.6,30.17,South,185,7.0,9.0,64,0.01,,---,0.05,VWS V14.01,2013-02-25 19:05:00,
2013-02-25 14:10:00,36.4,24.6,30.16,SSW,192,3.0,7.0,62,0.02,,---,0.06,VWS V14.01,2013-02-25 19:10:00,
2013-02-25 14:15:00,36.6,24.8,30.16,WSW,255,2.0,7.0,62,0.02,,---,0.06,VWS V14.01,2013-02-25 19:15:00,
2013-02-25 14:20:00,36.2,24.5,30.16,SSW,210,1.0,4.0,62,0.02,,---,0.06,VWS V14.01,2013-02-25 19:20:00,
2013-02-25 14:25:00,36.0,25.0,30.16,South,169,5.0,8.0,64,0.02,,---,0.06,VWS V14.01,2013-02-25 19:25:00,
2013-02-25 14:30:00,36.1,24.7,30.16,SW,232,2.0,2.0,63,0.02,,---,0.06,VWS V14.01,2013-02-25 19:30:00,
2013-02-25 14:35:00,36.0,24.6,30.16,South,173,3.0,9.0,63,0.02,,---,0.06,VWS V14.01,2013-02-25 19:35:00,
2013-02-25 14:40:00,36.0,24.3,30.16,South,170,9.0,9.0,62,0.02,,---,0.07,VWS V14.01,2013-02-25 19:40:00,
2013-02-25 14:45:00,36.3,24.5,30.16,South,173,2.0,10.0,62,0.02,,---,0.07,VWS V14.01,2013-02-25 19:45:00,
2013-02-25 14:50:00,36.2,24.1,30.16,SW,236,3.0,4.0,61,0.02,,---,0.07,VWS V14.01,2013-02-25 19:50:00,
2013-02-25 14:55:00,36.2,23.7,30.16,SSW,212,3.0,6.0,60,0.02,,---,0.07,VWS V14.01,2013-02-25 19:55:00,
2013-02-25 15:00:00,36.2,24.1,30.15,SW,214,2.0,3.0,61,0.02,,---,0.07,VWS V14.01,2013-02-25 20:00:00,
2013-02-25 15:05:00,36.2,24.1,30.15,West,279,4.0,6.0,61,0.02,,---,0.07,VWS V14.01,2013-02-25 20:05:00,
2013-02-25 15:10:00,36.2,24.5,30.15,WSW,242,6.0,6.0,62,0.02,,---,0.08,VWS V14.01,2013-02-25 20:10:00,
2013-02-25 15:15:00,35.9,24.2,30.15,WSW,249,2.0,7.0,62,0.02,,---,0.08,VWS V14.01,2013-02-25 20:15:00,
2013-02-25 15:20:00,35.9,24.2,30.15,SW,217,3.0,4.0,62,0.02,,---,0.08,VWS V14.01,2013-02-25 20:20:00,
2013-02-25 15:25:00,35.7,24.0,30.16,SW,235,1.0,7.0,62,0.02,,---,0.08,VWS V14.01,2013-02-25 20:25:00,
2013-02-25 15:30:00,35.6,23.9,30.16,WNW,288,5.0,6.0,62,0.02,,---,0.08,VWS V14.01,2013-02-25 20:30:00,
2013-02-25 15:35:00,35.5,23.8,30.15,WNW,293,1.0,9.0,62,0.02,,---,0.08,VWS V14.01,2013-02-25 20:35:00,
2013-02-25 15:40:00,35.7,24.7,30.15,WNW,294,0.0,0.0,64,0.02,,---,0.08,VWS V14.01,2013-02-25 20:40:00,
2013-02-25 15:45:00,35.9,24.5,30.16,WNW,295,3.0,4.0,63,0.02,,---,0.08,VWS V14.01,2013-02-25 20:45:00,
2013-02-25 15:50:00,35.9,24.5,30.16,West,267,1.0,4.0,63,0.02,,---,0.09,VWS V14.01,2013-02-25 20:50:00,
2013-02-25 15:55:00,35.9,24.5,30.15,West,266,3.0,4.0,63,0.02,,---,0.09,VWS V14.01,2013-02-25 20:55:00,
2013-02-25 16:00:00,35.9,24.5,30.15,West,266,0.0,3.0,63,0.02,,---,0.09,VWS V14.01,2013-02-25 21:00:00,
2013-02-25 16:05:00,35.7,24.4,30.15,WSW,247,5.0,5.0,63,0.02,,---,0.09,VWS V14.01,2013-02-25 21:05:00,
2013-02-25 16:10:00,35.8,24.1,30.15,WSW,245,4.0,4.0,62,0.01,,---,0.09,VWS V14.01,2013-02-25 21:10:00,
2013-02-25 16:15:00,35.7,24.4,30.15,WSW,243,2.0,5.0,63,0.01,,---,0.09,VWS V14.01,2013-02-25 21:15:00,
2013-02-25 16:20:00,35.8,24.1,30.15,WSW,243,2.0,5.0,62,0.01,,---,0.09,VWS V14.01,2013-02-25 21:20:00,
2013-02-25 16:21:00,35.7,24.4,30.15,SSW,198,2.0,5.0,63,0.01,,---,0.09,VWS V14.01,2013-02-25 21:21:00,
2013-02-25 16:26:00,35.5,23.8,30.15,South,179,2.0,7.0,62,0.01,,---,0.09,VWS V14.01,2013-02-25 21:26:00,
2013-02-25 16:30:00,35.5,24.2,30.15,South,176,2.0,7.0,63,0.01,,---,0.09,VWS V14.01,2013-02-25 21:30:00,
2013-02-25 16:31:00,35.3,24.0,30.15,South,176,3.0,5.0,63,0.01,,---,0.09,VWS V14.01,2013-02-25 21:31:00,
2013-02-25 16:36:00,35.3,24.0,30.15,South,180,3.0,7.0,63,0.01,,---,0.09,VWS V14.01,2013-02-25 21:36:00,
2013-02-25 16:40:00,35.3,24.0,30.15,South,181,3.0,7.0,63,0.01,,---,0.09,VWS V14.01,2013-02-25 21:40:00,
2013-02-25 16:41:00,35.3,24.4,30.15,South,181,0.0,3.0,64,0.01,,---,0.09,VWS V14.01,2013-02-25 21:41:00,
2013-02-25 16:46:00,35.3,24.7,30.15,South,181,1.0,4.0,65,0.01,,---,0.09,VWS V14.01,2013-02-25 21:46:00,
2013-02-25 16:50:00,35.3,24.4,30.15,South,181,3.0,4.0,64,0.01,,---,0.09,VWS V14.01,2013-02-25 21:50:00,
2013-02-25 16:51:00,35.3,24.4,30.15,South,181,3.0,3.0,64,0.00,,---,0.09,VWS V14.01,2013-02-25 21:51:00,
2013-02-25 16:56:00,35.3,24.4,30.15,South,186,3.0,5.0,64,0.00,,---,0.09,VWS V14.01,2013-02-25 21:56:00,
2013-02-25 17:00:00,35.3,24.4,30.15,South,186,3.0,5.0,64,0.00,,---,0.09,VWS V14.01,2013-02-25 22:00:00,
2013-02-25 17:01:00,35.3,24.4,30.15,South,186,3.0,5.0,64,0.00,,---,0.09,VWS V14.01,2013-02-25 22:01:00,
2013-02-25 17:06:00,35.2,24.3,30.15,South,186,2.0,5.0,64,0.00,,---,0.09,VWS V14.01,2013-02-25 22:06:00,
2013-02-25 17:10:00,35.2,24.3,30.15,South,186,4.0,5.0,64,0.00,,---,0.09,VWS V14.01,2013-02-25 22:10:00,
2013-02-25 17:11:00,35.2,24.3,30.15,South,186,2.0,4.0,64,0.00,,---,0.09,VWS V14.01,2013-02-25 22:11:00,
2013-02-25 17:16:00,35.0,24.4,30.15,South,186,1.0,5.0,65,0.00,,---,0.09,VWS V14.01,2013-02-25 22:16:00,
2013-02-25 17:20:00,35.0,24.1,30.15,South,186,1.0,53.0,64,0.00,,---,0.09,VWS V14.01,2013-02-25 22:20:00,
2013-02-25 17:21:00,34.9,24.3,30.15,South,186,0.0,3.0,65,0.00,,---,0.09,VWS V14.01,2013-02-25 22:21:00,
2013-02-25 17:26:00,34.7,24.5,30.14,South,187,0.0,4.0,66,0.00,,---,0.09,VWS V14.01,2013-02-25 22:26:00,
2013-02-25 17:30:00,34.6,24.4,30.15,South,187,0.0,4.0,66,0.01,,---,0.10,VWS V14.01,2013-02-25 22:30:00,
2013-02-25 17:31:00,34.6,24.1,30.14,South,187,0.0,0.0,65,0.01,,---,0.10,VWS V14.01,2013-02-25 22:31:00,
2013-02-25 17:36:00,34.6,24.4,30.15,South,187,0.0,3.0,66,0.01,,---,0.10,VWS V14.01,2013-02-25 22:36:00,
2013-02-25 17:40:00,34.5,24.7,30.15,South,187,0.0,3.0,67,0.01,,---,0.10,VWS V14.01,2013-02-25 22:40:00,
2013-02-25 17:41:00,34.5,24.7,30.15,South,187,0.0,0.0,67,0.01,,---,0.10,VWS V14.01,2013-02-25 22:41:00,
2013-02-25 17:46:00,34.3,25.2,30.15,South,187,0.0,0.0,69,0.01,,---,0.10,VWS V14.01,2013-02-25 22:46:00,
2013-02-25 17:50:00,34.2,25.1,30.15,South,187,0.0,0.0,69,0.01,,---,0.10,VWS V14.01,2013-02-25 22:50:00,
2013-02-25 17:51:00,34.2,24.8,30.15,South,187,0.0,0.0,68,0.01,,---,0.10,VWS V14.01,2013-02-25 22:51:00,
2013-02-25 17:56:00,34.2,24.4,30.16,South,187,0.0,2.0,67,0.01,,---,0.10,VWS V14.01,2013-02-25 22:56:00,
2013-02-25 18:00:00,34.2,24.4,30.15,South,187,0.0,2.0,67,0.01,,---,0.10,VWS V14.01,2013-02-25 23:00:00,
2013-02-25 18:01:00,34.2,24.8,30.15,South,188,0.0,0.0,68,0.01,,---,0.10,VWS V14.01,2013-02-25 23:01:00,
2013-02-25 18:06:00,34.0,25.6,30.15,South,187,0.0,0.0,71,0.01,,---,0.10,VWS V14.01,2013-02-25 23:06:00,
2013-02-25 18:10:00,33.8,25.8,30.15,South,188,0.0,0.0,72,0.01,,---,0.10,VWS V14.01,2013-02-25 23:10:00,
2013-02-25 18:11:00,33.6,25.2,30.16,South,188,0.0,0.0,71,0.01,,---,0.10,VWS V14.01,2013-02-25 23:11:00,
2013-02-25 18:16:00,33.5,24.8,30.15,South,188,0.0,0.0,70,0.01,,---,0.10,VWS V14.01,2013-02-25 23:16:00,
2013-02-25 18:20:00,33.5,24.8,30.15,South,188,0.0,2.0,70,0.01,,---,0.10,VWS V14.01,2013-02-25 23:20:00,
2013-02-25 18:21:00,33.5,24.8,30.15,South,188,0.0,0.0,70,0.01,,---,0.10,VWS V14.01,2013-02-25 23:21:00,
2013-02-25 18:26:00,33.3,24.9,30.15,South,188,0.0,0.0,71,0.01,,---,0.10,VWS V14.01,2013-02-25 23:26:00,
2013-02-25 18:30:00,33.2,25.2,30.16,South,188,0.0,0.0,72,0.01,,---,0.10,VWS V14.01,2013-02-25 23:30:00,
2013-02-25 18:31:00,33.2,25.2,30.15,South,188,0.0,0.0,72,0.00,,---,0.10,VWS V14.01,2013-02-25 23:31:00,
2013-02-25 18:36:00,33.0,25.3,30.15,South,188,0.0,0.0,73,0.00,,---,0.10,VWS V14.01,2013-02-25 23:36:00,
2013-02-25 18:40:00,32.8,25.4,30.15,South,189,0.0,0.0,74,0.00,,---,0.10,VWS V14.01,2013-02-25 23:40:00,
2013-02-25 18:41:00,32.8,25.4,30.16,South,189,0.0,0.0,74,0.00,,---,0.10,VWS V14.01,2013-02-25 23:41:00,
2013-02-25 18:46:00,32.6,25.2,30.16,South,189,0.0,1.0,74,0.00,,---,0.10,VWS V14.01,2013-02-25 23:46:00,
2013-02-25 18:50:00,32.6,25.2,30.16,South,189,0.0,1.0,74,0.00,,---,0.10,VWS V14.01,2013-02-25 23:50:00,
2013-02-25 18:51:00,32.5,25.1,30.16,South,189,0.0,0.0,74,0.00,,---,0.10,VWS V14.01,2013-02-25 23:51:00,
2013-02-25 18:56:00,32.5,25.5,30.16,South,189,0.0,0.0,75,0.00,,---,0.10,VWS V14.01,2013-02-25 23:56:00,
2013-02-25 19:00:00,32.4,25.4,30.16,South,189,0.0,0.0,75,0.00,,---,0.10,VWS V14.01,2013-02-26 00:00:00,
2013-02-25 19:01:00,32.4,25.7,30.16,South,189,0.0,1.0,76,0.00,,---,0.10,VWS V14.01,2013-02-26 00:01:00,
2013-02-25 19:06:00,32.4,25.0,30.16,South,189,0.0,1.0,74,0.00,,---,0.10,VWS V14.01,2013-02-26 00:06:00,
2013-02-25 19:10:00,32.4,25.0,30.16,South,189,0.0,1.0,74,0.00,,---,0.10,VWS V14.01,2013-02-26 00:10:00,
2013-02-25 19:11:00,32.4,25.0,30.16,South,189,0.0,0.0,74,0.00,,---,0.10,VWS V14.01,2013-02-26 00:11:00,
2013-02-25 19:16:00,32.4,25.7,30.16,South,189,0.0,1.0,76,0.00,,---,0.10,VWS V14.01,2013-02-26 00:16:00,
2013-02-25 19:20:00,32.4,25.4,30.16,South,189,0.0,1.0,75,0.00,,---,0.10,VWS V14.01,2013-02-26 00:20:00,
2013-02-25 19:21:00,32.4,25.4,30.17,South,189,0.0,0.0,75,0.00,,---,0.10,VWS V14.01,2013-02-26 00:21:00,
2013-02-25 19:26:00,32.4,25.7,30.17,South,189,0.0,0.0,76,0.00,,---,0.10,VWS V14.01,2013-02-26 00:26:00,
2013-02-25 19:30:00,32.2,25.8,30.17,South,189,0.0,1.0,77,0.00,,---,0.10,VWS V14.01,2013-02-26 00:30:00,
2013-02-25 19:31:00,32.2,26.1,30.17,South,189,0.0,0.0,78,0.00,,---,0.10,VWS V14.01,2013-02-26 00:31:00,
2013-02-25 19:37:00,32.1,26.0,30.16,South,189,0.0,0.0,78,0.00,,---,0.10,VWS V14.01,2013-02-26 00:37:00,
2013-02-25 19:40:00,32.1,26.3,30.16,South,189,0.0,0.0,79,0.00,,---,0.10,VWS V14.01,2013-02-26 00:40:00,
2013-02-25 19:41:00,31.9,25.8,30.16,South,189,0.0,0.0,78,0.00,,---,0.10,VWS V14.01,2013-02-26 00:41:00,
2013-02-25 19:47:00,31.9,25.8,30.17,South,189,0.0,0.0,78,0.00,,---,0.10,VWS V14.01,2013-02-26 00:47:00,
2013-02-25 19:50:00,31.9,25.8,30.17,South,190,0.0,0.0,78,0.00,,---,0.10,VWS V14.01,2013-02-26 00:50:00,
2013-02-25 19:52:00,31.9,25.8,30.16,South,190,0.0,0.0,78,0.00,,---,0.10,VWS V14.01,2013-02-26 00:52:00,
2013-02-25 19:57:00,32.1,26.0,30.17,South,190,0.0,0.0,78,0.00,,---,0.10,VWS V14.01,2013-02-26 00:57:00,
2013-02-25 20:00:00,31.9,25.8,30.16,South,190,0.0,0.0,78,0.00,,---,0.10,VWS V14.01,2013-02-26 01:00:00,
2013-02-25 20:02:00,31.9,25.8,30.17,South,190,0.0,0.0,78,0.00,,---,0.10,VWS V14.01,2013-02-26 01:02:00,
2013-02-25 20:07:00,31.9,25.8,30.17,South,190,0.0,0.0,78,0.00,,---,0.10,VWS V14.01,2013-02-26 01:07:00,
2013-02-25 20:10:00,31.9,25.2,30.17,South,190,0.0,0.0,76,0.00,,---,0.10,VWS V14.01,2013-02-26 01:10:00,
2013-02-25 20:12:00,32.1,25.4,30.17,South,190,0.0,0.0,76,0.00,,---,0.10,VWS V14.01,2013-02-26 01:12:00,
2013-02-25 20:17:00,32.1,25.4,30.17,South,190,0.0,1.0,76,0.00,,---,0.10,VWS V14.01,2013-02-26 01:17:00,
2013-02-25 20:20:00,31.9,25.8,30.17,South,190,0.0,1.0,78,0.00,,---,0.10,VWS V14.01,2013-02-26 01:20:00,
2013-02-25 20:22:00,31.9,25.8,30.16,South,190,0.0,0.0,78,0.00,,---,0.10,VWS V14.01,2013-02-26 01:22:00,
2013-02-25 20:27:00,31.8,26.0,30.16,South,190,0.0,2.0,79,0.00,,---,0.10,VWS V14.01,2013-02-26 01:27:00,
2013-02-25 20:30:00,31.6,25.9,30.16,South,190,0.0,2.0,79,0.00,,---,0.10,VWS V14.01,2013-02-26 01:30:00,
2013-02-25 20:32:00,31.5,25.8,30.16,South,190,0.0,0.0,79,0.00,,---,0.10,VWS V14.01,2013-02-26 01:32:00,
2013-02-25 20:37:00,31.5,25.8,30.16,South,190,0.0,1.0,79,0.00,,---,0.10,VWS V14.01,2013-02-26 01:37:00,
2013-02-25 20:40:00,31.3,25.6,30.16,South,190,1.0,1.0,79,0.00,,---,0.10,VWS V14.01,2013-02-26 01:40:00,
2013-02-25 20:42:00,31.3,25.6,30.15,South,190,0.0,1.0,79,0.00,,---,0.10,VWS V14.01,2013-02-26 01:42:00,
2013-02-25 20:47:00,31.2,25.5,30.15,South,190,0.0,1.0,79,0.00,,---,0.10,VWS V14.01,2013-02-26 01:47:00,
2013-02-25 20:50:00,31.2,25.5,30.15,South,190,0.0,1.0,79,0.00,,---,0.10,VWS V14.01,2013-02-26 01:50:00,
2013-02-25 20:52:00,31.2,25.5,30.16,South,190,0.0,0.0,79,0.00,,---,0.10,VWS V14.01,2013-02-26 01:52:00,
2013-02-25 20:57:00,31.2,25.5,30.16,South,190,0.0,0.0,79,0.00,,---,0.10,VWS V14.01,2013-02-26 01:57:00,
2013-02-25 21:00:00,31.2,25.5,30.16,South,190,0.0,0.0,79,0.00,,---,0.10,VWS V14.01,2013-02-26 02:00:00,
2013-02-25 21:02:00,31.2,25.5,30.15,South,190,0.0,0.0,79,0.00,,---,0.10,VWS V14.01,2013-02-26 02:02:00,
2013-02-25 21:07:00,31.2,25.5,30.15,South,190,1.0,1.0,79,0.00,,---,0.10,VWS V14.01,2013-02-26 02:07:00,
2013-02-25 21:10:00,31.2,25.5,30.16,South,191,0.0,2.0,79,0.00,,---,0.10,VWS V14.01,2013-02-26 02:10:00,
2013-02-25 21:12:00,31.2,25.5,30.15,South,191,0.0,1.0,79,0.00,,---,0.10,VWS V14.01,2013-02-26 02:12:00,
2013-02-25 21:17:00,31.2,25.5,30.15,South,191,0.0,2.0,79,0.00,,---,0.10,VWS V14.01,2013-02-26 02:17:00,
2013-02-25 21:20:00,31.0,25.6,30.15,South,191,0.0,2.0,80,0.00,,---,0.10,VWS V14.01,2013-02-26 02:20:00,
2013-02-25 21:22:00,31.1,25.7,30.15,South,191,0.0,0.0,80,0.00,,---,0.10,VWS V14.01,2013-02-26 02:22:00,
2013-02-25 21:27:00,30.9,25.5,30.15,South,191,0.0,0.0,80,0.00,,---,0.10,VWS V14.01,2013-02-26 02:27:00,
2013-02-25 21:30:00,30.9,25.5,30.15,South,191,0.0,0.0,80,0.00,,---,0.10,VWS V14.01,2013-02-26 02:30:00,
2013-02-25 21:32:00,30.9,25.8,30.15,South,191,0.0,0.0,81,0.00,,---,0.10,VWS V14.01,2013-02-26 02:32:00,
2013-02-25 21:37:00,30.9,25.5,30.16,South,191,0.0,0.0,80,0.00,,---,0.10,VWS V14.01,2013-02-26 02:37:00,
2013-02-25 21:40:00,30.8,25.7,30.15,South,191,0.0,0.0,81,0.00,,---,0.10,VWS V14.01,2013-02-26 02:40:00,
2013-02-25 21:42:00,30.8,25.4,30.15,South,191,0.0,0.0,80,0.00,,---,0.10,VWS V14.01,2013-02-26 02:42:00,
2013-02-25 21:47:00,30.8,25.4,30.15,South,191,0.0,0.0,80,0.00,,---,0.10,VWS V14.01,2013-02-26 02:47:00,
2013-02-25 21:50:00,30.8,25.4,30.15,South,191,0.0,0.0,80,0.00,,---,0.10,VWS V14.01,2013-02-26 02:50:00,
2013-02-25 21:52:00,30.8,25.4,30.15,South,191,0.0,0.0,80,0.00,,---,0.10,VWS V14.01,2013-02-26 02:52:00,
2013-02-25 21:57:00,30.8,25.7,30.14,South,191,0.0,0.0,81,0.00,,---,0.10,VWS V14.01,2013-02-26 02:57:00,
2013-02-25 22:00:00,30.8,25.7,30.15,South,191,0.0,0.0,81,0.00,,---,0.10,VWS V14.01,2013-02-26 03:00:00,
2013-02-25 22:02:00,30.6,25.2,30.14,South,191,0.0,0.0,80,0.00,,---,0.10,VWS V14.01,2013-02-26 03:02:00,
2013-02-25 22:07:00,30.6,25.8,30.14,South,191,0.0,0.0,82,0.00,,---,0.10,VWS V14.01,2013-02-26 03:07:00,
2013-02-25 22:10:00,30.6,25.8,30.14,South,191,0.0,0.0,82,0.00,,---,0.10,VWS V14.01,2013-02-26 03:10:00,
2013-02-25 22:12:00,30.6,25.8,30.14,South,191,0.0,0.0,82,0.00,,---,0.00,VWS V14.01,2013-02-26 03:12:00,
2013-02-25 22:17:00,30.6,25.8,30.14,South,191,0.0,0.0,82,0.00,,---,0.10,VWS V14.01,2013-02-26 03:17:00,
2013-02-25 22:20:00,30.5,25.7,30.14,South,191,0.0,0.0,82,0.00,,---,0.10,VWS V14.01,2013-02-26 03:20:00,
2013-02-25 22:22:00,30.5,25.7,30.14,South,191,0.0,0.0,82,0.00,,---,0.10,VWS V14.01,2013-02-26 03:22:00,
2013-02-25 22:27:00,30.5,25.7,30.14,South,191,0.0,0.0,82,0.00,,---,0.10,VWS V14.01,2013-02-26 03:27:00,
2013-02-25 22:30:00,30.5,25.7,30.14,South,191,0.0,0.0,82,0.00,,---,0.10,VWS V14.01,2013-02-26 03:30:00,
2013-02-25 22:32:00,30.3,25.5,30.14,South,191,0.0,0.0,82,0.00,,---,0.10,VWS V14.01,2013-02-26 03:32:00,
2013-02-25 22:37:00,30.3,25.5,30.13,South,191,0.0,0.0,82,0.00,,---,0.10,VWS V14.01,2013-02-26 03:37:00,
2013-02-25 22:40:00,30.3,25.8,30.13,South,191,0.0,0.0,83,0.00,,---,0.10,VWS V14.01,2013-02-26 03:40:00,
2013-02-25 22:42:00,30.3,25.8,30.13,South,191,0.0,0.0,83,0.00,,---,0.10,VWS V14.01,2013-02-26 03:42:00,
2013-02-25 22:47:00,30.3,25.5,30.13,South,191,0.0,0.0,82,0.00,,---,0.10,VWS V14.01,2013-02-26 03:47:00,
2013-02-25 22:50:00,30.3,25.5,30.13,South,191,0.0,0.0,82,0.00,,---,0.10,VWS V14.01,2013-02-26 03:50:00,
2013-02-25 22:52:00,30.3,25.8,30.13,South,191,0.0,0.0,83,0.00,,---,0.10,VWS V14.01,2013-02-26 03:52:00,
2013-02-25 22:58:00,30.3,25.5,30.13,SSW,196,0.0,0.0,82,0.00,,---,0.10,VWS V14.01,2013-02-26 03:58:00,
2013-02-25 23:00:00,30.3,25.2,30.12,SSW,196,0.0,0.0,81,0.00,,---,0.10,VWS V14.01,2013-02-26 04:00:00,
2013-02-25 23:03:00,30.3,25.2,30.12,SSW,199,0.0,0.0,81,0.00,,---,0.10,VWS V14.01,2013-02-26 04:03:00,
2013-02-25 23:08:00,30.3,25.2,30.13,SSW,202,0.0,0.0,81,0.00,,---,0.10,VWS V14.01,2013-02-26 04:08:00,
2013-02-25 23:10:00,30.3,25.2,30.12,SSW,202,0.0,0.0,81,0.00,,---,0.10,VWS V14.01,2013-02-26 04:10:00,
2013-02-25 23:13:00,30.3,25.2,30.13,SSW,202,0.0,0.0,81,0.00,,---,0.10,VWS V14.01,2013-02-26 04:13:00,
2013-02-25 23:18:00,30.3,25.2,30.13,SSW,204,0.0,0.0,81,0.00,,---,0.10,VWS V14.01,2013-02-26 04:18:00,
2013-02-25 23:20:00,30.3,25.5,30.13,SSW,204,0.0,0.0,82,0.00,,---,0.10,VWS V14.01,2013-02-26 04:20:00,
2013-02-25 23:23:00,30.2,25.4,30.13,SSW,204,0.0,0.0,82,0.00,,---,0.10,VWS V14.01,2013-02-26 04:23:00,
2013-02-25 23:28:00,30.2,25.4,30.13,SSW,204,0.0,0.0,82,0.00,,---,0.10,VWS V14.01,2013-02-26 04:28:00,
2013-02-25 23:30:00,30.0,25.2,30.13,SSW,204,0.0,0.0,82,0.00,,---,0.10,VWS V14.01,2013-02-26 04:30:00,
2013-02-25 23:33:00,30.0,25.2,30.13,SSW,204,0.0,0.0,82,0.00,,---,0.10,VWS V14.01,2013-02-26 04:33:00,
2013-02-25 23:38:00,29.9,25.4,30.13,SSW,204,0.0,0.0,83,0.00,,---,0.10,VWS V14.01,2013-02-26 04:38:00,
2013-02-25 23:40:00,29.9,25.1,30.13,SSW,204,0.0,1.0,82,0.00,,---,0.10,VWS V14.01,2013-02-26 04:40:00,
2013-02-25 23:43:00,29.9,25.1,30.14,SSW,206,1.0,2.0,82,0.00,,---,0.10,VWS V14.01,2013-02-26 04:43:00,
2013-02-25 23:48:00,30.0,25.5,30.14,SSW,206,0.0,2.0,83,0.00,,---,0.10,VWS V14.01,2013-02-26 04:48:00,
2013-02-25 23:50:00,30.0,25.8,30.14,SSW,206,0.0,2.0,84,0.00,,---,0.10,VWS V14.01,2013-02-26 04:50:00,
2013-02-25 23:53:00,30.0,25.5,30.14,SSW,206,0.0,0.0,83,0.00,,---,0.10,VWS V14.01,2013-02-26 04:53:00,
2013-02-25 23:58:00,30.0,25.5,30.15,SSW,212,0.0,0.0,83,0.00,,---,0.10,VWS V14.01,2013-02-26 04:58:00,